timestamp,surface_pressure_avg,surface_temp_avg,battery_voltage,lat,long
2024-03-08 00:09:00+00:00,280.9948,0.52,11.61,47.84626,-54.09684
2024-03-08 00:19:01+00:00,274.3247,0.53,11.61,47.84626,-54.09684
2024-03-08 00:29:01+00:00,272.7148,0.5,11.61,47.84626,-54.09684
2024-03-08 00:39:01+00:00,260.1948,0.5,11.61,47.84626,-54.09684
2024-03-08 00:49:01+00:00,254.2564,0.47,11.61,47.84626,-54.09684
2024-03-08 00:59:01+00:00,266.6931,0.55,11.61,47.84626,-54.09684
2024-03-08 01:09:01+00:00,259.0097,0.5,11.61,47.84626,-54.09684
2024-03-08 01:19:00+00:00,233.7431,0.43,11.61,47.84626,-54.09684
2024-03-08 01:29:00+00:00,228.1731,0.7,11.61,47.84626,-54.09684
2024-03-08 01:39:00+00:00,246.0781,0.51,11.61,47.84626,-54.09684
2024-03-08 01:49:00+00:00,239.9081,0.4,11.61,47.84626,-54.09684
2024-03-08 01:59:00+00:00,211.5081,0.31,11.61,47.84626,-54.09684
2024-03-08 02:09:00+00:00,206.3997,0.58,11.61,47.84626,-54.09684
2024-03-08 02:19:00+00:00,219.6614,0.6,11.61,47.84626,-54.09684
2024-03-08 02:29:00+00:00,213.3597,0.4,11.61,47.84626,-54.09684
2024-03-08 02:39:00+00:00,197.2415,0.38,11.61,47.84626,-54.09684
2024-03-08 02:49:00+00:00,201.1348,0.4,11.61,47.84626,-54.09684
2024-03-08 02:59:00+00:00,211.9965,0.4,11.61,47.84626,-54.09684
2024-03-08 03:09:00+00:00,200.1081,0.3,11.61,47.84626,-54.09684
2024-03-08 03:19:00+00:00,189.8598,0.1,11.61,47.84626,-54.09684
2024-03-08 03:29:00+00:00,204.5781,0.09,11.61,47.84626,-54.09684
2024-03-08 03:39:00+00:00,208.3965,0.1,11.61,47.84626,-54.09684
2024-03-08 03:49:00+00:00,192.2482,0.0,11.61,47.84626,-54.09684
2024-03-08 03:59:00+00:00,189.4948,0.0,11.61,47.84626,-54.09684
2024-03-08 04:09:00+00:00,203.2248,0.0,11.61,47.84626,-54.09684
2024-03-08 04:19:00+00:00,201.2164,0.0,11.61,47.84626,-54.09684
2024-03-08 04:29:00+00:00,189.8381,-0.1,11.61,47.84626,-54.09684
2024-03-08 04:39:00+00:00,196.4348,-0.1,11.61,47.84626,-54.09684
2024-03-08 04:49:00+00:00,209.3647,-0.1,11.61,47.84626,-54.09684
2024-03-08 04:59:00+00:00,210.2415,-0.1,11.61,47.84626,-54.09684
2024-03-08 05:09:00+00:00,207.8381,-0.1,11.61,47.84626,-54.09684
2024-03-08 05:19:00+00:00,212.9664,-0.1,11.61,47.84626,-54.09684
2024-03-08 05:29:00+00:00,217.8464,-0.01,11.61,47.84626,-54.09684
2024-03-08 05:39:00+00:00,212.2098,0.04,11.61,47.84626,-54.09684
2024-03-08 05:49:00+00:00,213.558,0.03,11.61,47.84626,-54.09684
2024-03-08 05:59:00+00:00,226.5931,0.1,11.61,47.84626,-54.09684
2024-03-08 06:09:00+00:00,235.3814,0.0,11.61,47.84626,-54.09684
2024-03-08 06:19:00+00:00,231.8481,0.0,11.53,47.84626,-54.09684
2024-03-08 06:29:00+00:00,231.4481,0.1,11.53,47.84626,-54.09684
2024-03-08 06:39:00+00:00,248.6514,-0.1,11.53,47.84626,-54.09684
2024-03-08 06:49:00+00:00,263.3047,0.42,11.53,47.84626,-54.09684
2024-03-08 06:59:00+00:00,267.0431,-0.2,11.53,47.84626,-54.09684
2024-03-08 07:09:00+00:00,269.7548,-0.37,11.53,47.84626,-54.09684
2024-03-08 07:19:00+00:00,279.2614,0.15,11.61,47.84626,-54.09684
2024-03-08 07:29:00+00:00,293.6263,0.5,11.61,47.84626,-54.09684
2024-03-08 07:39:00+00:00,303.7463,0.5,11.61,47.84626,-54.09684
2024-03-08 07:49:00+00:00,304.7264,0.4,11.61,47.84626,-54.09684
2024-03-08 07:59:00+00:00,308.058,0.43,11.61,47.84626,-54.09684
2024-03-08 08:09:00+00:00,327.638,0.4,11.61,47.84626,-54.09684
2024-03-08 08:19:00+00:00,325.628,0.4,11.53,47.84626,-54.09684
2024-03-08 08:29:00+00:00,320.1981,0.3,11.53,47.84626,-54.09684
2024-03-08 08:39:00+00:00,332.023,0.3,11.53,47.84626,-54.09684
2024-03-08 08:49:00+00:00,335.0862,0.3,11.53,47.84626,-54.09684
2024-03-08 08:59:00+00:00,325.3063,0.3,11.53,47.84626,-54.09684
2024-03-08 09:09:00+00:00,329.9697,0.31,11.53,47.84626,-54.09684
2024-03-08 09:19:00+00:00,349.5479,0.3,11.53,47.84626,-54.09684
2024-03-08 09:29:00+00:00,346.4163,0.3,11.53,47.84626,-54.09684
2024-03-08 09:39:00+00:00,333.7513,0.3,11.53,47.84626,-54.09684
2024-03-08 09:49:00+00:00,342.5295,0.3,11.53,47.84626,-54.09684
2024-03-08 09:59:00+00:00,355.8229,0.3,11.53,47.84626,-54.09684
2024-03-08 10:09:00+00:00,345.8313,0.3,11.53,47.84626,-54.09684
2024-03-08 10:19:00+00:00,339.218,0.29,11.53,47.84626,-54.09684
2024-03-08 10:29:00+00:00,347.2529,0.3,11.53,47.84626,-54.09684
2024-03-08 10:39:00+00:00,345.0763,0.1,11.53,47.84626,-54.09684
2024-03-08 10:49:00+00:00,334.5613,0.14,11.53,47.84626,-54.09684
2024-03-08 10:59:00+00:00,338.7263,0.15,11.53,47.84626,-54.09684
2024-03-08 11:09:00+00:00,343.6146,0.18,11.53,47.84626,-54.09684
2024-03-08 11:19:00+00:00,330.0630000000001,0.2,11.53,47.84626,-54.09684
2024-03-08 11:29:00+00:00,329.5847,0.29,11.53,47.84626,-54.09684
2024-03-08 11:39:00+00:00,331.8263,0.28,11.53,47.84626,-54.09684
2024-03-08 11:49:00+00:00,324.508,0.23,11.53,47.84626,-54.09684
2024-03-08 11:59:00+00:00,309.1279,0.2,11.53,47.84626,-54.09684
2024-03-08 12:09:00+00:00,303.833,0.2,11.53,47.84626,-54.09684
2024-03-08 12:19:00+00:00,304.4397,0.2,11.53,47.84626,-54.09684
2024-03-08 12:29:00+00:00,292.3013,0.2,11.53,47.84626,-54.09684
2024-03-08 12:39:00+00:00,283.7764,0.2,11.53,47.84626,-54.09684
2024-03-08 12:49:00+00:00,280.853,0.2,11.53,47.84626,-54.09684
2024-03-08 12:59:00+00:00,277.8414,0.2,11.53,47.84626,-54.09684
2024-03-08 13:09:00+00:00,265.6648,-0.5,11.53,47.84626,-54.09684
2024-03-08 13:19:00+00:00,258.7164,0.09,11.53,47.84626,-54.09684
2024-03-08 13:29:00+00:00,258.1547,0.2,11.53,47.84626,-54.09684
2024-03-08 13:39:00+00:00,248.6247,0.19,11.53,47.84626,-54.09684
2024-03-08 13:49:00+00:00,237.2747,0.1,11.53,47.84626,-54.09684
2024-03-08 13:59:00+00:00,234.6614,0.08,11.53,47.84626,-54.09684
2024-03-08 14:09:00+00:00,232.9031,0.08,11.53,47.84626,-54.09684
2024-03-08 14:19:00+00:00,223.2747,0.0,11.53,47.84626,-54.09684
2024-03-08 14:29:00+00:00,217.8864,0.0,11.53,47.84626,-54.09684
2024-03-08 14:39:00+00:00,207.1515,0.0,11.53,47.84626,-54.09684
2024-03-08 14:49:00+00:00,195.6798,-0.02,11.53,47.84626,-54.09684
2024-03-08 14:59:00+00:00,197.8431,-0.24,11.53,47.84626,-54.09684
2024-03-08 15:09:00+00:00,200.2231,-0.1,11.53,47.84626,-54.09684
2024-03-08 15:19:00+00:00,192.7265,-0.21,11.53,47.84626,-54.09684
2024-03-08 15:29:00+00:00,188.5965,-0.26,11.53,47.84626,-54.09684
2024-03-08 15:39:00+00:00,196.1181,-0.3,11.53,47.84626,-54.09684
2024-03-08 15:49:00+00:00,188.6914,-0.49,11.53,47.84626,-54.09684
2024-03-08 15:59:00+00:00,179.7498,-0.22,11.53,47.84626,-54.09684
2024-03-08 16:09:00+00:00,188.3865,-0.1,11.53,47.84626,-54.09684
2024-03-08 16:19:00+00:00,188.6215,-0.47,11.53,47.84626,-54.09684
2024-03-08 16:29:00+00:00,176.5748,-0.18,11.53,47.84626,-54.09684
2024-03-08 16:39:00+00:00,176.3482,-0.1,11.53,47.84626,-54.09684
2024-03-08 16:49:00+00:00,184.5931,-0.1,11.53,47.84626,-54.09684
2024-03-08 16:59:00+00:00,179.5831,-0.1,11.53,47.84626,-54.09684
2024-03-08 17:09:00+00:00,177.3115,-0.1,11.53,47.84626,-54.09684
2024-03-08 17:19:00+00:00,188.7765,-0.1,11.53,47.84626,-54.09684
2024-03-08 17:29:00+00:00,191.8481,-0.4,11.53,47.84626,-54.09684
2024-03-08 17:39:00+00:00,187.8932,-0.45,11.53,47.84626,-54.09684
2024-03-08 17:49:00+00:00,194.5697,-0.26,11.53,47.84626,-54.09684
2024-03-08 17:59:00+00:00,201.7898,-0.2,11.53,47.84626,-54.09684
2024-03-08 18:09:00+00:00,197.6264,-0.1,11.53,47.84626,-54.09684
2024-03-08 18:19:00+00:00,194.7681,-0.3,11.53,47.84626,-54.09684
2024-03-08 18:29:00+00:00,204.1265,-0.26,11.53,47.84626,-54.09684
2024-03-08 18:39:00+00:00,213.9781,-0.1,11.53,47.84626,-54.09684
2024-03-08 18:49:00+00:00,210.2415,-0.1,11.53,47.84626,-54.09684
2024-03-08 18:59:00+00:00,219.7581,-0.1,11.53,47.84626,-54.09684
2024-03-08 19:09:00+00:00,231.7031,-0.1,11.53,47.84626,-54.09684
2024-03-08 19:19:00+00:00,226.8781,-0.1,11.53,47.84626,-54.09684
2024-03-08 19:29:00+00:00,235.3698,-0.11,11.53,47.84626,-54.09684
2024-03-08 19:39:00+00:00,253.1731,-0.11,11.53,47.84626,-54.09684
2024-03-08 19:49:00+00:00,253.5431,-0.2,11.53,47.84626,-54.09684
2024-03-08 19:59:00+00:00,257.8864,-0.2,11.53,47.84626,-54.09684
2024-03-08 20:09:00+00:00,277.3748,-0.33,11.53,47.84626,-54.09684
2024-03-08 20:19:00+00:00,284.0514,0.07,11.53,47.84626,-54.09684
2024-03-08 20:29:00+00:00,287.7564,-0.27,11.53,47.84626,-54.09684
2024-03-08 20:39:00+00:00,305.0864,0.08,11.53,47.84626,-54.09684
2024-03-08 20:49:00+00:00,321.233,0.18,11.53,47.84626,-54.09684
2024-03-08 20:59:00+00:00,311.5546,-0.1,11.53,47.84626,-54.09684
2024-03-08 21:09:00+00:00,307.873,0.19,11.53,47.84626,-54.09684
2024-03-08 21:19:00+00:00,322.568,0.17,11.53,47.84626,-54.09684
2024-03-08 21:29:00+00:00,327.2764,0.0,11.53,47.84626,-54.09684
2024-03-08 21:39:00+00:00,326.7813,-0.1,11.53,47.84626,-54.09684
2024-03-08 21:49:00+00:00,337.838,-0.02,11.53,47.84626,-54.09684
2024-03-08 21:59:00+00:00,351.4513,-0.1,11.53,47.84626,-54.09684
2024-03-08 22:09:00+00:00,350.4429,-0.1,11.53,47.84626,-54.09684
2024-03-08 22:19:00+00:00,344.1046,-0.1,11.53,47.84626,-54.09684
2024-03-08 22:29:00+00:00,348.7263,-0.1,11.53,47.84626,-54.09684
2024-03-08 22:39:00+00:00,357.9213,-0.1,11.53,47.84626,-54.09684
2024-03-08 22:49:00+00:00,355.2646,-0.2,11.53,47.84626,-54.09684
2024-03-08 22:59:00+00:00,357.9329,-0.2,11.53,47.84626,-54.09684
2024-03-08 23:09:00+00:00,359.0597,-0.12,11.53,47.84626,-54.09684
2024-03-08 23:19:00+00:00,345.9747,-0.22,11.53,47.84626,-54.09684
2024-03-08 23:29:00+00:00,340.843,-0.23,11.53,47.84626,-54.09684
2024-03-08 23:39:00+00:00,351.8914,-0.13,11.53,47.84626,-54.09684
2024-03-08 23:49:00+00:00,355.5262,-0.27,11.53,47.84626,-54.09684
2024-03-08 23:59:00+00:00,347.0464,-0.3,11.53,47.84626,-54.09684
